RH
16 14 13 13 13 13 13 13 12 14 16 16 16 16 16 16 15 16 15 15 15 14 14 13 13 12 11 10 10 10 9 9 9 10 12 13 13 13 13 12 11 11 9 7 9 13 16 20 25 31 31 27 22 20 26 41 57 65 70 74 73 74 73 72 76 72 68 72 81 72 53 60 77 88 90 87 88 91 96 88 76 76 79 81 85 90 84 83
18 15 15 14 14 15 14 14 14 16 18 18 18 17 17 17 17 17 16 16 16 15 15 15 15 14 13 12 11 11 10 10 10 11 12 13 13 14 13 13 13 12 11 9 7 9 13 17 21 27 33 33 28 22 21 26 40 54 62 64 63 65 67 68 71 74 73 71 80 74 55 62 77 86 90 94 91 83 89 93 83 73 77 84 86 93 93 92
21 17 16 16 16 16 16 15 16 18 20 20 20 18 18 18 18 18 18 18 17 17 17 18 17 16 14 14 13 12 11 11 11 11 12 13 13 14 14 13 13 12 12 11 9 8 9 14 18 22 29 34 34 29 25 22 26 37 49 57 57 59 65 68 71 80 83 74 76 75 66 69 78 89 92 89 94 91 79 79 88 79 75 86 87 92 100 99
24 19 17 18 18 17 17 17 18 21 22 22 21 20 19 19 19 19 19 18 18 19 19 20 20 19 16 15 16 15 13 12 12 12 12 13 14 14 14 13 13 12 12 11 10 8 7 9 13 18 23 30 34 34 31 25 23 25 33 39 43 52 61 69 71 75 78 67 64 71 75 73 74 87 91 84 87 89 70 59 77 85 82 89 92 95 100 100
28 22 18 19 20 20 19 19 21 23 24 24 22 21 20 20 21 20 20 19 19 20 21 22 23 21 19 17 17 17 15 14 13 13 13 14 15 14 14 13 12 12 11 11 11 10 8 7 9 12 17 23 29 35 37 32 27 24 24 23 28 39 50 63 65 60 63 60 58 70 77 73 75 84 85 83 79 74 68 62 70 80 89 94 92 95 99 100
31 25 20 21 22 22 21 20 22 25 26 25 24 23 22 22 22 21 20 20 20 22 23 24 25 24 21 20 19 19 17 15 14 13 14 15 15 15 14 13 13 12 11 11 11 11 10 8 7 8 12 17 22 30 36 37 33 28 25 21 23 29 33 45 49 45 53 59 61 72 77 74 77 78 76 79 72 66 72 80 77 70 84 97 90 87 92 98
33 27 21 22 23 24 22 22 24 27 28 27 26 25 24 24 23 22 21 21 22 24 25 26 28 27 24 22 21 20 19 16 15 14 14 15 16 16 15 14 13 12 12 12 12 11 11 10 9 8 8 12 16 23 30 35 38 35 29 25 25 25 22 25 30 33 43 53 59 66 70 72 72 68 74 77 67 66 75 86 82 66 76 92 90 85 88 96
35 29 23 23 24 24 23 24 27 29 29 29 28 27 27 27 24 22 22 22 23 26 28 30 31 30 27 25 23 22 20 17 16 15 15 16 17 16 15 15 14 13 13 12 13 13 13 12 11 9 8 9 11 17 22 28 36 39 37 32 27 24 22 20 19 22 30 40 49 56 61 68 72 66 69 70 60 64 75 86 84 70 74 81 84 88 86 90
37 30 24 25 25 25 25 28 30 31 31 30 30 30 30 29 25 23 23 23 25 27 31 33 33 32 29 26 25 22 20 18 17 16 17 17 18 18 17 17 16 15 14 13 13 14 15 15 14 13 12 9 8 12 16 22 30 37 40 38 33 28 25 24 21 20 22 27 33 41 51 60 66 65 60 53 55 64 72 84 86 73 74 73 76 87 87 82
38 30 26 27 26 27 29 31 32 32 32 32 32 33 33 30 25 24 24 24 26 29 33 36 36 33 30 27 25 23 20 19 17 17 18 18 19 19 19 19 18 17 16 15 14 14 15 17 18 18 17 14 12 10 10 16 22 27 35 39 39 35 30 27 25 24 23 22 23 27 37 45 53 56 47 38 51 66 71 83 87 74 70 71 72 78 87 89
37 31 28 29 30 31 32 33 33 32 33 33 33 35 34 29 26 25 25 26 28 32 37 39 37 34 31 28 26 23 21 19 18 18 19 19 20 21 21 21 20 19 18 17 16 15 15 17 20 21 20 18 17 16 11 11 14 18 26 34 40 42 38 32 28 27 26 23 22 22 25 29 35 35 26 31 53 66 71 81 83 75 70 74 76 72 76 88
36 32 31 32 33 34 34 34 33 33 34 35 36 36 33 29 27 26 27 28 30 35 40 41 39 35 31 29 27 24 21 19 19 19 20 19 20 21 23 23 22 21 20 19 18 17 16 16 20 22 22 21 20 20 17 14 12 12 17 24 34 41 43 40 34 30 28 28 25 24 23 18 19 15 10 33 59 62 67 73 73 75 77 78 78 73 72 76
36 33 33 34 35 36 36 35 35 34 35 37 37 34 31 29 28 28 28 29 32 37 42 42 40 36 32 30 27 24 21 19 20 20 20 19 20 20 21 23 24 24 23 22 22 21 19 17 17 19 21 23 23 21 20 19 17 13 12 15 22 31 39 44 44 37 31 30 29 27 25 19 15 9 11 37 55 54 60 64 65 72 81 82 75 73 79 74
38 36 36 37 39 39 38 37 36 36 37 37 36 33 31 30 29 29 29 30 34 40 43 44 40 36 33 31 27 24 21 20 21 21 20 19 19 19 21 24 26 26 26 25 25 24 22 20 18 17 18 20 24 24 22 21 20 19 16 12 14 20 29 38 44 45 39 33 31 31 27 21 18 14 17 34 41 42 49 55 60 65 73 82 78 75 81 78
41 40 40 41 42 41 40 38 37 37 38 37 35 33 31 31 30 30 29 31 36 41 45 45 40 37 35 31 27 24 22 22 23 21 20 19 19 21 22 24 26 27 28 27 26 24 21 17 16 16 16 18 21 24 26 24 22 22 21 17 14 15 19 27 33 42 47 42 34 32 28 22 20 20 23 30 28 27 33 44 54 58 64 75 80 80 81 81
45 44 44 45 45 44 42 39 38 38 38 37 36 34 32 32 31 29 29 33 38 42 47 45 40 39 36 31 28 24 23 24 23 21 19 20 21 22 22 23 23 23 23 22 21 20 15 11 12 12 12 13 16 18 22 25 24 23 22 21 21 17 15 17 22 30 43 50 44 35 31 25 23 25 27 28 22 17 19 30 45 51 56 64 72 79 81 83
48 47 47 48 48 46 43 41 40 39 39 39 37 35 34 33 31 29 31 35 39 43 47 45 41 40 36 32 28 24 24 25 23 21 21 23 23 21 19 18 18 16 14 14 15 15 13 12 13 14 14 12 11 12 15 18 22 26 25 23 25 24 18 15 15 19 29 44 49 42 35 31 28 29 29 26 21 16 15 20 31 40 45 53 63 73 78 81
51 50 51 51 50 47 45 44 41 40 40 40 38 36 34 33 30 28 32 37 39 42 45 44 44 42 36 32 27 24 24 24 24 23 23 24 20 16 14 13 14 13 13 14 14 14 14 14 15 15 17 16 12 10 10 11 14 23 28 25 26 27 22 19 17 15 17 28 41 44 41 38 33 32 29 27 24 18 17 18 21 28 34 41 53 64 72 77
55 54 54 52 50 48 48 46 43 42 42 41 39 36 35 32 28 27 32 37 38 41 44 45 46 43 37 32 27 25 25 22 23 27 27 22 15 11 10 11 12 13 15 18 19 21 21 20 20 18 19 19 16 13 11 11 11 14 21 23 26 28 25 24 22 17 13 15 27 36 42 46 43 36 30 28 26 20 19 19 18 20 23 29 40 52 64 73
55 54 53 50 49 50 50 48 46 44 44 42 39 36 35 31 26 27 32 35 37 41 45 48 48 44 38 32 27 27 27 22 23 28 28 20 11 10 11 11 12 11 14 18 20 26 30 30 28 24 23 22 19 17 14 14 13 11 14 18 24 29 28 27 26 23 17 13 16 24 34 47 51 43 35 30 26 21 20 20 18 16 16 20 28 39 54 67
51 51 50 49 50 50 51 50 48 46 45 43 39 38 35 28 26 28 31 35 37 42 47 49 48 45 38 32 29 31 30 24 24 29 30 23 13 12 13 12 12 11 12 14 13 17 28 37 36 29 28 29 25 21 17 17 20 16 14 17 20 25 28 30 29 27 24 18 14 15 21 34 46 47 42 36 28 23 22 22 20 17 15 15 19 27 40 56
48 49 50 50 50 51 52 51 49 48 45 41 39 39 33 26 25 26 30 34 37 42 47 48 48 45 38 32 31 33 31 27 27 29 32 28 19 13 13 13 13 13 12 12 12 14 23 31 34 33 32 34 35 29 19 18 26 26 21 22 22 22 24 28 31 30 29 26 19 16 15 19 30 41 46 43 34 28 25 24 22 20 18 15 14 18 28 44
49 50 52 51 51 53 54 51 49 48 44 41 41 39 29 24 25 26 31 35 37 43 45 47 49 45 39 33 33 33 31 30 29 30 33 31 25 18 16 16 18 20 19 17 15 15 21 23 22 26 29 33 39 38 26 18 22 29 30 29 27 28 28 28 33 34 31 30 24 21 17 13 17 28 39 42 39 34 28 25 23 20 19 17 14 13 17 32
51 52 53 53 54 55 54 52 51 49 45 43 43 36 26 23 24 27 34 36 38 43 45 48 50 46 40 34 33 35 32 31 31 33 35 32 27 21 18 20 23 27 28 28 27 19 20 23 17 17 21 26 33 37 35 27 21 24 31 33 35 41 41 36 37 34 30 32 29 25 22 15 12 16 25 35 40 41 35 28 24 20 19 18 16 14 13 20
52 52 52 53 56 57 56 53 53 51 46 46 43 32 24 22 22 27 34 38 41 43 45 50 51 47 42 34 34 37 33 32 35 39 39 36 29 20 18 21 24 29 29 34 42 32 20 20 18 15 16 18 22 27 32 34 27 23 26 32 38 46 47 42 40 35 29 32 32 30 27 20 14 12 14 23 33 41 40 33 27 22 19 19 18 16 13 14
53 54 54 55 57 59 58 55 54 52 49 47 39 28 24 23 23 27 33 38 41 42 46 52 52 49 43 34 34 39 37 36 38 43 44 40 31 23 22 24 26 29 28 35 52 46 28 22 20 17 16 16 18 20 25 30 31 29 26 26 30 37 42 42 43 40 32 32 36 35 30 24 20 16 12 13 21 33 40 38 31 25 21 19 19 18 15 13
56 57 58 58 58 60 58 56 55 53 51 47 35 27 25 24 24 28 33 40 42 43 51 56 55 54 45 34 34 39 40 37 38 44 46 41 33 30 31 30 28 28 28 41 58 55 38 30 25 20 18 17 19 22 25 26 29 30 26 25 26 27 32 38 42 42 36 34 37 35 31 27 24 20 14 10 12 21 32 38 36 30 24 20 19 19 18 14
60 61 62 62 60 61 59 57 56 55 53 45 32 27 27 25 25 29 36 44 45 48 55 56 57 58 48 35 33 36 34 31 34 40 42 38 30 26 30 33 30 27 34 51 62 60 48 35 29 24 20 20 21 25 28 27 26 27 25 26 28 24 22 28 34 40 41 40 38 31 29 29 25 20 17 12 10 12 21 33 37 34 28 22 19 18 19 17
65 66 66 64 62 60 58 57 57 57 54 42 31 27 27 25 24 28 38 44 47 54 57 55 59 60 48 37 34 34 31 28 32 39 39 32 22 20 27 33 31 34 51 62 59 59 56 44 38 34 27 26 28 30 30 29 30 31 28 27 30 29 24 22 24 30 36 41 39 32 29 28 24 21 20 17 13 10 13 24 33 36 33 26 20 19 19 19
70 70 70 67 63 58 57 58 58 58 54 41 30 26 26 25 23 29 39 45 52 60 60 59 64 62 48 37 38 39 31 26 34 46 45 30 19 24 33 36 37 48 64 65 55 55 56 52 51 47 41 39 40 41 38 35 34 35 34 31 31 33 31 26 20 21 27 33 34 31 28 28 26 23 22 20 15 10 10 16 25 34 39 33 23 20 19 19
74 73 73 69 63 58 58 59 58 58 55 40 28 25 24 24 24 30 41 49 56 60 61 67 72 67 50 37 41 45 37 32 39 49 47 34 30 34 37 41 48 56 63 66 65 62 58 56 54 49 47 48 49 52 51 47 44 42 40 38 36 39 39 34 28 24 24 23 24 27 28 30 28 23 22 20 15 12 10 10 15 27 38 38 27 22 20 19
74 73 73 69 63 60 60 60 58 58 55 37 25 24 23 23 25 31 43 54 60 59 61 71 76 67 50 37 36 39 40 40 42 44 43 44 47 43 42 49 55 57 64 74 77 71 66 63 58 52 49 50 52 54 60 65 63 57 50 44 46 51 50 47 44 41 36 27 20 20 27 35 34 24 20 20 16 15 14 9 9 18 31 37 33 26 21 19
72 72 70 67 64 62 63 61 57 59 53 33 23 23 22 25 29 33 46 59 65 64 61 70 80 68 48 38 32 32 41 41 37 41 49 57 60 59 60 58 57 66 75 76 74 73 75 73 71 69 63 60 61 56 61 76 81 73 62 53 49 53 56 55 50 46 43 40 34 29 26 31 35 26 17 19 16 13 14 12 8 11 22 33 36 32 24 20
69 68 66 66 64 63 63 59 58 60 48 28 22 21 19 25 29 33 47 59 66 70 64 68 82 72 47 38 32 33 45 42 32 38 55 66 69 73 73 61 65 86 87 76 74 76 80 83 85 87 80 77 77 66 63 73 81 80 76 71 63 60 63 63 60 58 54 52 60 65 46 24 23 23 15 16 17 14 13 14 11 8 14 26 35 35 28 21
67 66 66 67 65 64 62 58 61 58 41 24 21 20 19 25 28 33 48 59 65 68 64 65 79 71 48 38 34 34 47 50 40 41 53 65 69 67 63 60 76 92 86 80 81 77 80 89 91 93 93 92 86 79 74 73 79 84 84 81 75 70 68 62 59 62 64 61 66 77 67 36 19 16 15 15 14 15 15 14 14 10 8 17 29 36 34 25
69 69 69 68 65 65 62 60 63 53 33 23 21 20 20 24 29 36 48 60 64 63 59 62 74 68 47 39 37 35 46 55 53 54 57 62 64 62 61 68 82 87 82 88 91 82 81 86 86 89 93 94 90 88 86 79 81 89 88 84 84 84 79 68 58 54 60 63 60 65 68 56 38 18 11 17 15 13 15 14 14 12 8 11 22 33 36 30
70 70 71 69 66 64 61 62 61 44 27 24 24 23 22 21 26 35 45 57 65 64 57 57 68 66 47 39 37 37 49 56 54 53 54 55 57 60 67 76 85 88 87 94 96 88 80 75 75 81 84 86 88 90 90 85 82 85 89 94 97 95 85 72 66 66 68 67 62 61 56 62 70 42 8 10 14 11 15 14 13 14 9 8 14 26 36 35
73 73 73 69 65 62 61 62 54 35 25 26 26 26 24 19 21 32 44 57 66 69 62 56 63 63 48 38 35 40 54 56 47 44 47 53 58 63 72 81 91 97 94 96 99 95 86 72 67 77 82 80 85 93 95 94 89 85 93 102 101 98 88 73 68 72 75 68 57 55 48 50 70 58 27 23 19 10 15 15 12 16 13 8 10 18 30 36
75 74 72 67 62 60 61 58 43 29 26 28 27 28 25 20 21 29 43 58 68 71 65 59 62 61 50 38 31 38 50 48 42 44 50 58 66 72 80 87 96 101 100 100 100 99 97 84 72 79 85 81 88 100 100 99 97 91 96 102 100 101 98 84 75 70 70 64 48 51 58 48 48 50 49 55 39 13 12 16 13 15 15 10 8 12 23 33
74 73 70 64 60 60 57 47 34 27 29 31 29 27 25 22 24 29 41 59 73 74 68 60 60 60 51 40 31 34 45 45 40 46 57 65 69 73 80 88 95 99 101 102 100 100 102 95 85 85 90 92 94 99 99 99 99 96 94 92 92 99 100 92 81 66 62 63 51 50 59 53 48 45 47 70 72 35 13 16 15 14 16 13 6 10 21 30
75 74 69 64 62 60 50 37 29 28 31 32 28 24 22 22 28 33 43 63 78 79 72 62 59 60 52 41 33 32 43 49 42 44 59 69 70 73 78 86 95 100 99 100 100 100 99 94 87 88 97 101 95 94 95 89 90 97 95 90 91 97 102 101 88 70 60 56 48 49 53 53 57 50 44 68 83 51 17 13 15 13 16 15 8 14 22 23
80 78 71 68 66 59 45 33 29 28 30 31 24 18 18 21 31 39 48 66 80 81 75 65 59 60 54 43 34 30 40 51 47 46 56 64 71 81 84 88 99 101 98 101 101 99 99 90 76 81 99 102 95 92 77 58 69 90 91 92 99 99 100 100 92 83 72 52 42 47 51 56 64 64 57 55 56 46 27 17 18 19 19 18 16 18 17 14
83 82 76 73 71 60 43 32 29 28 30 29 20 13 14 19 30 40 50 67 82 83 79 69 59 59 57 45 34 32 36 44 48 48 52 61 73 85 90 95 102 100 97 102 99 93 94 80 58 65 88 97 97 86 58 43 62 85 92 96 99 97 102 104 94 84 71 52 44 46 48 62 84 88 72 49 49 61 48 28 27 27 26 29 26 18 11 8
83 84 79 75 73 62 44 33 30 30 31 28 18 11 11 14 23 34 46 65 81 84 82 73 60 58 60 47 35 35 32 33 40 44 49 63 74 81 91 97 99 101 100 100 98 92 81 65 56 63 75 88 94 78 57 51 52 56 68 80 86 90 96 102 94 77 62 50 45 44 44 60 87 97 77 51 54 67 53 39 43 43 47 50 32 13 8 7
80 83 80 77 76 64 45 33 31 32 32 26 16 13 14 15 20 27 39 62 81 82 81 76 62 57 61 49 34 34 34 28 31 40 52 66 74 82 93 94 94 101 96 83 82 80 63 55 65 71 73 85 87 64 49 48 35 32 47 64 82 91 91 100 100 80 66 61 52 44 44 53 76 93 80 53 49 55 46 43 49 49 57 62 40 16 9 6
79 83 82 79 77 66 46 35 32 32 32 23 13 13 16 19 27 31 35 57 79 82 79 78 65 54 57 52 34 32 42 37 29 37 52 65 77 90 96 95 97 97 83 65 60 60 56 60 71 75 80 88 73 43 33 32 23 30 49 59 68 76 85 99 99 82 74 67 51 43 45 53 71 90 84 57 43 51 61 67 70 62 56 51 41 28 15 6
81 84 82 79 78 67 48 36 33 32 30 20 10 11 15 17 27 37 41 54 74 81 78 78 70 55 52 52 39 31 43 46 35 37 51 66 84 98 100 100 96 81 65 58 56 57 60 66 73 83 94 88 60 35 28 25 20 26 44 53 54 64 82 86 78 79 77 59 45 43 44 49 65 83 91 74 49 52 75 92 99 96 78 52 31 21 13 8
81 82 80 79 79 68 49 37 33 31 28 18 9 10 15 13 17 28 40 55 71 79 78 79 74 58 48 48 41 31 37 45 40 40 56 75 85 91 97 100 89 71 61 56 57 64 67 67 73 91 102 89 64 45 31 23 22 23 29 38 46 62 78 74 72 83 71 45 44 52 46 48 63 80 96 93 68 55 70 89 99 99 82 50 24 15 10 9
80 81 80 77 76 67 50 38 33 31 26 17 9 10 13 14 13 13 24 48 71 77 76 80 77 62 50 46 39 31 32 37 37 40 60 84 87 79 86 92 82 73 71 63 60 68 71 69 75 89 101 97 81 69 50 30 25 27 27 27 31 42 50 49 58 68 54 38 47 54 45 44 58 72 83 88 76 56 51 63 76 80 66 37 18 16 12 8
79 80 78 74 73 66 52 40 34 31 27 15 9 10 9 11 15 13 13 33 64 77 76 79 79 67 56 49 38 31 31 31 31 36 56 83 88 75 77 90 88 79 76 70 69 74 76 78 83 90 101 103 94 91 80 51 29 26 31 30 27 27 29 29 34 41 40 36 41 47 43 40 49 60 66 77 85 78 65 54 50 60 62 40 19 15 12 8
83 84 80 74 75 68 53 42 35 32 27 15 8 9 8 7 12 16 14 21 50 76 80 78 79 72 62 53 40 30 32 34 30 32 50 76 87 79 79 94 97 87 79 75 77 83 86 89 93 96 100 101 98 101 100 78 48 30 28 34 32 25 24 27 30 34 36 30 29 37 43 45 54 57 56 69 86 93 89 69 43 39 44 32 18 15 12 9
89 92 86 76 76 69 54 43 38 34 27 15 8 7 8 7 7 12 15 16 35 65 76 74 77 75 65 55 43 31 32 39 34 31 48 76 90 92 94 97 91 81 77 75 75 79 85 90 96 99 100 101 100 100 102 97 79 55 37 32 33 32 31 29 27 31 35 34 39 50 53 51 55 55 54 62 70 72 75 64 41 29 26 22 18 16 11 9
Wind_Speed
20 19 19 19 20 21 23 25 26 27 29 30 30 30 30 31 33 35 36 38 39 40 41 41 39 36 35 34 34 35 35 35 34 34 32 31 29 29 30 32 35 36 35 36 38 42 47 51 54 57 59 60 61 64 66 68 68 68 69 71 72 72 71 68 67 67 65 63 60 62 57 46 44 44 43 42 41 43 49 53 49 46 45 40 37 35 34 34
21 20 20 20 21 22 24 26 27 29 30 31 31 31 31 32 34 36 37 38 40 41 42 42 40 37 36 35 35 35 36 36 35 35 33 32 30 29 30 32 34 36 35 35 36 39 44 48 51 54 57 60 61 62 64 67 69 70 70 72 73 72 70 68 67 67 67 66 62 64 59 47 46 46 45 44 43 44 46 50 52 50 48 45 41 38 36 35
22 22 21 21 22 23 25 27 28 30 32 32 32 32 32 33 35 36 38 39 41 42 42 42 40 37 36 36 36 36 37 37 37 35 34 32 30 29 29 31 33 35 35 34 34 36 40 45 49 51 54 58 61 62 63 65 68 70 71 73 73 71 69 68 68 68 70 70 66 64 59 52 48 48 49 47 44 46 47 46 49 53 51 48 46 42 39 38
23 23 23 23 23 24 26 28 30 32 33 33 32 33 33 34 36 38 39 40 41 43 43 42 40 37 36 36 36 37 38 38 37 36 34 32 29 28 28 29 31 33 34 33 33 33 36 40 45 49 52 55 59 62 63 64 66 68 71 73 72 71 70 70 72 73 73 73 68 63 61 58 52 50 52 51 47 48 50 47 46 49 51 51 49 46 44 42
24 24 25 24 25 25 27 28 31 33 33 33 33 33 34 35 37 39 40 41 43 44 43 42 40 37 36 36 36 37 38 38 38 37 35 31 28 27 27 27 29 31 32 32 32 32 33 36 40 44 48 52 56 58 62 65 65 67 70 69 69 72 73 73 78 77 73 72 68 63 63 61 55 54 55 55 52 50 51 50 47 43 46 54 52 46 47 45
26 26 26 26 26 26 27 29 32 34 34 34 34 35 35 37 39 40 41 43 45 45 44 43 40 38 37 36 36 37 38 38 38 37 35 32 28 26 25 26 26 28 30 30 30 30 32 33 35 39 43 48 52 55 60 64 66 66 67 66 67 73 75 76 79 76 72 71 68 64 65 63 60 58 57 57 54 51 51 49 50 45 42 53 56 48 47 47
27 27 27 27 27 27 28 30 33 34 35 35 35 35 36 38 40 41 42 45 46 46 45 42 40 38 37 36 36 37 37 38 37 36 34 31 27 25 24 24 24 25 27 28 28 28 30 31 33 35 37 43 48 52 56 60 63 65 66 66 69 74 75 75 76 73 72 71 69 68 67 66 63 59 57 59 55 52 51 48 51 51 43 48 55 55 51 47
27 27 28 28 28 28 28 31 33 35 35 36 36 36 37 39 41 41 43 46 47 46 44 41 39 38 37 36 36 37 37 37 37 35 33 30 27 25 23 23 23 24 25 26 27 27 28 29 31 33 34 38 42 46 52 54 58 63 66 69 72 73 72 72 72 71 72 71 72 71 69 67 64 62 60 61 57 53 52 49 53 54 46 46 49 55 59 54
27 28 29 29 28 28 30 32 34 35 36 37 37 37 38 40 41 42 44 47 48 46 43 40 39 38 36 36 36 37 37 37 36 34 32 29 28 26 23 22 21 21 23 25 27 28 28 28 29 31 32 35 37 41 46 49 54 59 64 69 71 70 70 71 70 70 71 71 72 72 71 70 66 65 64 61 57 55 53 50 55 55 49 49 46 47 56 61
27 28 28 29 29 30 31 33 34 36 37 38 37 37 39 41 42 43 46 48 48 45 41 39 38 37 36 35 36 37 37 36 35 33 30 29 27 25 23 22 20 19 20 22 24 27 28 28 27 29 30 32 34 37 41 45 51 56 59 64 67 69 71 71 71 71 71 71 71 71 71 71 69 68 65 62 58 57 55 53 58 56 50 50 49 46 47 54
27 27 28 28 29 31 33 34 35 37 38 38 38 38 40 41 43 44 47 49 48 43 39 38 37 36 35 35 36 36 36 35 33 31 29 27 26 25 23 21 20 19 19 20 22 25 28 29 28 28 30 31 31 33 37 40 46 51 54 57 62 67 71 72 72 71 71 70 69 70 71 71 71 70 64 61 62 61 59 58 59 55 51 51 50 50 46 45
26 27 28 29 31 32 34 35 37 38 38 38 38 39 40 42 44 46 49 50 46 41 38 37 36 35 34 35 35 35 35 33 31 29 28 27 26 25 24 23 21 20 20 19 20 22 25 28 30 30 30 30 31 33 34 36 39 45 50 53 57 62 67 70 71 71 71 71 71 70 72 71 70 67 61 62 65 64 61 61 60 54 53 52 50 51 50 45
26 27 29 31 32 34 35 37 38 39 38 37 38 39 41 43 45 47 50 49 44 40 37 36 35 34 34 34 35 34 33 32 30 28 27 27 26 25 25 24 23 22 21 21 21 21 23 26 29 32 33 32 33 34 34 35 35 39 44 49 54 57 61 65 69 72 71 71 71 72 72 71 68 63 62 64 67 66 63 61 59 55 54 54 53 52 51 49
27 29 30 32 34 35 37 38 39 39 38 38 39 40 42 44 46 49 50 47 41 38 37 36 35 34 34 34 34 33 32 31 28 27 27 27 26 25 24 23 23 24 25 26 27 26 25 25 27 31 34 36 36 35 35 37 36 36 39 44 48 52 56 62 67 68 70 71 70 72 73 71 67 64 65 66 67 66 64 62 60 59 57 55 55 54 52 51
29 30 31 33 35 36 38 39 39 39 38 38 40 41 43 45 47 50 49 44 40 38 36 35 34 34 34 34 33 33 31 28 26 26 26 25 24 23 22 22 24 25 27 28 28 27 24 23 24 27 31 35 39 38 38 38 38 38 38 39 42 46 52 59 63 63 66 70 71 72 73 72 68 67 68 66 67 68 64 63 63 61 60 58 55 55 54 52
30 31 32 34 35 37 38 39 39 38 38 39 41 42 44 46 49 50 46 41 38 37 35 34 34 34 34 33 32 32 29 25 24 25 24 22 21 21 22 24 25 26 26 26 25 23 22 21 22 23 26 30 36 40 41 40 41 41 41 39 39 43 47 53 59 61 61 65 70 72 72 71 69 70 69 68 70 68 62 63 65 64 63 61 58 57 56 54
30 31 33 35 36 37 38 39 39 39 39 40 41 43 45 47 50 48 43 39 37 36 35 34 34 34 33 32 32 31 27 23 23 23 21 20 20 22 24 24 24 24 24 24 23 22 22 23 25 25 26 27 30 36 41 42 41 42 45 43 40 43 45 46 53 58 57 59 66 70 71 72 70 71 70 71 73 66 60 62 64 65 65 63 61 59 58 56
31 32 34 35 36 37 38 39 39 39 40 41 42 44 46 49 49 45 40 38 36 35 34 34 34 34 33 31 31 29 26 21 20 20 19 18 21 22 22 21 21 22 23 25 26 26 27 27 29 30 30 29 29 30 36 42 42 42 47 47 44 45 45 43 47 54 56 56 60 65 70 72 70 72 72 72 73 66 60 62 63 65 66 65 64 62 60 58
31 33 35 35 36 37 38 39 39 40 41 41 43 44 47 49 47 42 39 37 36 35 34 34 34 33 32 31 30 28 25 21 16 16 18 18 20 19 17 17 19 21 23 26 27 29 30 31 32 32 32 31 30 30 31 37 45 46 47 48 47 47 47 45 45 50 53 52 56 61 66 69 70 72 73 73 74 68 63 63 65 65 66 66 66 65 63 61
32 33 34 35 36 37 38 39 40 40 41 42 43 45 47 48 44 40 38 36 35 35 34 34 33 31 31 30 28 25 25 22 15 14 17 17 17 16 15 16 17 18 20 24 26 26 28 30 31 32 33 33 32 31 31 32 40 47 47 47 48 49 49 47 46 47 49 49 52 57 61 64 68 71 74 76 75 69 64 64 65 65 65 65 66 66 65 63
32 33 34 35 36 38 38 39 40 41 41 42 43 46 47 45 41 38 37 35 34 35 35 34 32 30 30 28 26 23 24 22 15 14 17 17 17 16 16 18 18 19 20 21 23 23 25 27 29 31 32 32 31 31 31 30 32 41 46 47 49 50 49 49 49 48 47 48 49 52 58 61 64 69 73 76 75 68 65 66 66 65 65 65 66 66 67 65
33 33 34 36 37 38 38 39 40 41 41 42 43 47 47 42 38 37 36 35 34 35 35 33 31 30 29 27 25 22 22 20 16 15 16 16 17 17 18 20 20 21 22 22 22 22 23 25 27 29 31 30 29 29 29 28 28 33 40 44 47 49 50 49 50 50 49 49 48 49 54 58 60 65 71 74 75 70 67 67 67 67 66 65 65 65 67 68
34 35 35 36 37 38 38 40 41 41 42 42 45 47 44 39 37 36 35 35 35 36 35 32 30 29 28 26 24 22 20 18 16 16 16 17 18 18 19 20 21 23 25 24 23 22 23 24 25 27 29 30 29 28 28 27 26 27 32 39 42 45 48 49 49 53 53 50 49 49 51 56 58 63 68 71 73 72 70 69 69 69 68 65 64 64 66 68
34 36 36 36 37 37 38 40 41 41 42 43 45 45 41 37 36 36 35 35 36 35 33 31 30 29 27 26 23 21 19 17 16 17 17 18 20 20 19 20 21 23 25 25 25 23 22 24 25 23 24 26 27 27 26 25 26 25 26 31 36 40 46 48 48 52 54 51 51 50 51 54 56 59 64 66 68 71 72 71 70 69 68 66 64 64 65 67
35 35 36 37 37 37 38 40 41 41 42 44 46 43 39 35 35 36 36 36 35 34 32 30 30 28 27 26 22 20 19 17 17 17 18 19 20 20 19 20 21 24 25 25 25 22 21 25 25 21 20 20 21 22 23 23 24 24 24 26 31 37 43 46 46 48 51 51 50 51 52 53 52 54 59 61 64 68 70 71 70 69 68 67 66 65 64 66
34 35 37 38 38 38 38 40 41 41 42 45 45 41 37 35 36 37 37 36 34 33 32 30 30 28 27 25 22 19 19 17 17 17 19 20 19 19 19 20 21 23 25 25 25 22 20 25 27 22 19 17 18 18 18 20 22 24 26 25 26 31 37 43 45 46 48 48 48 51 53 53 51 51 56 59 60 63 67 70 71 69 69 68 67 66 65 64
35 36 37 38 39 38 39 41 41 41 43 45 44 39 36 36 37 38 37 35 34 33 31 31 31 29 27 25 22 19 18 18 17 18 19 19 19 19 19 20 20 22 24 24 23 22 19 23 28 26 23 20 20 19 18 19 21 23 25 24 24 27 31 38 43 46 47 46 47 52 53 53 53 53 55 57 58 60 63 66 70 70 69 69 68 66 66 65
35 36 38 39 39 39 40 41 40 41 43 45 42 37 36 37 38 38 37 34 33 32 31 31 31 28 27 25 22 20 19 19 18 18 19 19 19 20 19 19 20 21 23 22 21 21 19 21 26 28 27 25 24 24 23 22 20 22 24 23 25 27 28 32 38 43 46 46 48 52 52 53 55 55 54 55 56 58 61 63 66 69 70 69 69 68 67 66
36 37 38 39 39 39 40 40 40 41 44 44 40 37 36 37 38 38 35 34 33 31 31 32 31 28 27 25 23 22 21 19 18 18 19 19 18 19 19 19 20 19 21 20 19 20 20 20 22 25 26 26 27 28 26 24 22 22 24 23 24 27 28 29 33 38 43 48 51 51 51 53 56 55 54 54 54 56 59 60 62 66 69 70 71 70 68 68
36 38 38 39 39 39 40 40 40 41 44 43 40 37 37 37 38 38 35 34 32 31 32 33 31 29 27 25 23 23 22 19 17 17 19 19 18 18 19 21 21 18 19 20 18 19 20 19 19 21 23 24 27 28 28 26 24 24 24 22 24 26 28 29 31 34 40 48 53 53 51 52 55 56 54 55 55 53 55 58 59 62 67 72 73 71 70 69
37 38 38 39 39 39 40 41 41 42 43 43 39 37 37 37 38 37 35 33 32 31 32 33 31 28 27 25 22 21 22 19 16 16 17 19 19 19 20 21 21 20 19 19 18 19 19 19 19 19 20 22 24 25 27 27 26 26 24 23 23 25 26 28 30 34 40 47 52 54 53 53 56 57 55 55 55 52 53 56 56 59 65 72 74 72 71 71
38 38 38 38 38 39 40 42 41 42 43 42 39 38 38 38 37 36 35 32 31 31 32 32 30 27 27 26 22 19 19 17 16 15 16 18 19 19 20 22 23 23 22 21 19 18 18 19 21 21 20 21 22 22 23 25 26 27 26 24 24 23 24 26 28 33 39 43 46 49 50 51 55 58 56 56 57 54 53 54 55 58 63 69 72 72 73 73
38 37 37 37 38 39 41 41 41 42 42 40 39 38 38 38 37 36 34 31 31 32 33 31 28 26 26 26 23 18 16 16 15 14 16 18 19 19 21 23 24 26 26 25 21 17 16 18 20 22 22 22 22 21 21 21 22 25 25 24 24 23 25 27 28 31 36 37 38 40 45 49 53 59 59 58 58 56 53 53 54 57 62 66 71 74 75 74
37 37 37 37 38 40 41 41 41 42 41 39 38 38 38 38 36 35 33 31 31 32 34 31 26 25 26 26 23 19 17 17 14 13 16 19 20 21 22 23 24 26 28 26 22 17 16 17 18 22 24 24 24 22 21 21 23 25 24 24 25 24 25 27 26 28 31 31 29 30 40 50 56 61 60 57 56 55 53 53 53 56 60 64 69 73 75 75
36 37 37 38 39 41 41 41 41 42 40 39 38 39 39 38 36 35 33 31 31 32 33 31 25 23 24 25 23 18 18 19 15 13 16 20 23 23 22 22 23 26 28 27 23 19 18 17 18 22 25 26 27 25 23 22 23 25 25 26 25 23 25 27 26 27 29 30 29 28 33 43 53 60 60 58 59 57 54 55 53 54 57 61 65 71 74 75
37 37 38 38 39 40 40 41 42 41 39 38 38 39 40 39 36 34 33 32 32 32 32 29 24 23 23 23 21 18 18 19 17 14 15 18 22 22 20 22 23 25 26 27 25 22 22 20 18 21 24 26 28 28 27 23 21 24 26 26 24 23 26 27 27 28 29 32 33 31 32 35 41 53 61 62 62 58 54 55 54 53 55 58 63 68 72 75
37 38 38 38 39 40 40 41 42 40 38 38 38 39 40 39 36 34 33 32 32 32 32 29 24 23 24 22 20 18 18 20 19 17 16 17 20 21 20 20 23 24 24 27 27 24 24 22 18 20 23 24 27 29 29 24 21 24 26 24 24 27 27 26 26 28 29 32 32 32 35 34 32 43 57 62 62 58 54 55 54 52 53 57 61 66 70 74
37 38 38 38 39 40 41 41 41 39 38 37 38 39 40 40 37 35 33 33 32 32 31 29 25 23 24 23 19 16 18 19 19 19 19 18 19 21 22 22 24 25 25 29 30 26 25 22 15 16 20 21 26 30 30 26 23 24 24 23 26 27 25 25 26 27 28 31 32 30 34 35 31 33 41 50 59 59 55 55 54 52 53 56 59 63 68 72
37 37 37 37 38 39 41 41 40 38 38 38 39 40 40 40 38 35 33 33 32 31 31 28 25 24 24 24 19 16 16 16 16 19 21 21 20 20 23 25 26 27 28 29 31 28 27 24 16 15 19 21 25 30 28 23 24 25 25 25 27 27 26 25 26 27 27 29 29 28 30 33 32 29 29 34 47 57 56 53 53 53 53 55 57 61 65 69
36 37 36 36 37 39 40 40 39 38 38 39 40 40 40 39 37 35 33 33 32 31 30 28 26 24 23 23 19 15 15 16 15 18 21 24 26 24 25 28 29 29 28 28 29 27 28 28 22 20 23 25 28 29 24 20 24 28 27 24 25 27 26 26 26 27 27 27 28 28 28 27 26 26 28 27 32 46 55 54 52 53 53 53 55 57 59 65
36 36 34 35 37 39 40 39 38 38 39 39 40 40 39 38 36 35 33 32 32 31 29 28 26 25 23 22 20 16 14 14 16 18 20 23 28 29 29 30 31 32 30 28 25 24 26 28 25 22 24 28 31 28 22 21 25 29 29 25 23 24 24 24 25 24 24 26 26 27 26 22 20 20 23 25 29 42 53 54 51 51 52 52 53 54 56 62
35 34 33 34 37 39 40 38 38 39 39 40 40 40 39 37 35 34 32 31 31 31 29 28 26 25 24 22 21 17 13 12 15 18 19 21 26 29 29 31 32 31 31 29 24 22 22 24 24 21 21 26 29 26 23 23 24 27 29 26 24 24 24 23 22 21 22 23 22 26 25 19 17 18 21 29 37 42 46 50 49 49 50 51 52 53 55 60
34 33 33 34 37 39 39 38 38 39 40 40 41 40 38 37 35 33 31 30 30 30 28 27 26 24 24 22 21 19 15 12 13 16 19 22 25 27 28 30 30 31 34 33 26 21 20 21 25 24 20 22 25 26 26 24 22 23 24 23 23 23 23 21 19 20 24 22 20 26 24 16 16 19 22 30 37 37 39 46 47 46 47 47 50 52 53 57
34 33 33 34 37 39 38 37 38 39 40 41 41 39 38 38 35 33 31 28 28 29 28 26 25 23 23 21 20 19 17 13 13 17 20 23 26 26 26 28 30 32 34 31 24 20 21 22 25 25 21 20 21 25 29 29 25 24 21 18 19 19 18 18 18 21 23 21 20 24 21 15 16 18 20 27 33 34 36 41 42 42 41 41 47 52 52 55
34 33 33 34 36 37 37 37 38 39 40 41 40 38 37 37 36 33 31 27 26 29 28 26 25 23 21 20 18 18 18 16 16 19 21 23 25 25 25 29 32 31 29 24 20 19 21 22 23 22 20 19 19 22 27 29 28 25 19 17 18 16 16 17 19 21 21 18 20 24 21 18 18 18 20 27 33 33 34 35 36 37 36 36 42 49 50 53
34 34 33 34 36 36 36 36 37 39 40 41 40 38 35 35 35 32 30 27 25 28 29 26 24 23 21 19 17 16 17 18 18 20 22 23 23 23 26 29 29 26 23 20 19 19 20 21 20 20 21 19 17 19 22 25 27 24 18 16 15 15 15 19 20 19 20 20 22 23 22 21 21 20 22 28 33 35 34 34 33 34 36 38 41 44 48 51
34 34 34 35 36 36 36 35 37 39 40 41 40 38 35 33 33 31 29 27 24 26 29 26 25 24 21 20 17 13 14 17 19 20 21 23 21 21 25 26 24 22 21 20 21 21 20 19 17 18 21 19 16 18 18 18 22 21 16 11 10 11 13 15 17 17 19 21 20 21 22 22 21 22 23 28 35 38 36 36 34 33 36 41 44 46 48 50
33 34 34 35 36 36 35 35 37 39 40 40 40 38 35 33 33 32 28 25 24 25 27 27 26 25 22 21 19 13 10 12 15 17 18 21 22 22 24 24 23 21 21 21 21 20 17 17 16 17 21 19 15 18 19 16 15 15 11 9 7 8 9 9 12 16 18 18 16 18 22 21 18 19 22 26 34 39 38 36 34 33 35 40 45 48 50 50
33 34 34 35 36 36 35 35 37 39 39 40 39 37 35 32 33 34 31 25 22 23 25 26 26 25 23 22 21 17 12 9 10 12 15 19 22 25 26 25 22 21 22 21 20 18 15 16 17 18 21 20 16 16 20 18 13 11 12 13 11 4 3 6 8 13 15 14 14 17 21 19 16 17 21 27 32 35 37 36 33 34 36 39 43 47 50 51
33 34 34 35 36 36 35 34 36 38 38 38 37 36 35 32 31 32 33 27 21 22 24 24 24 25 23 22 21 19 16 13 12 13 16 17 20 26 28 24 21 21 23 21 19 18 17 19 20 20 21 23 19 16 19 20 15 13 16 18 18 14 7 4 6 9 10 11 15 17 16 14 13 16 22 27 29 30 34 35 35 36 37 38 42 46 49 50
32 33 34 35 36 36 34 34 35 37 38 37 36 36 35 34 31 29 31 29 23 20 22 21 21 22 22 21 21 19 16 15 15 15 17 17 20 26 29 23 18 20 22 20 19 20 21 22 23 23 22 24 22 18 16 17 16 15 17 19 20 19 15 12 10 9 11 12 15 15 10 9 14 19 22 25 24 23 28 33 36 38 37 37 41 45 48 50
31 32 33 35 35 35 34 33 34 37 37 36 35 35 35 35 33 30 29 28 23 20 20 19 18 19 19 19 20 18 15 14 13 14 15 15 16 23 28 23 18 20 23 22 22 23 24 25 27 27 25 24 23 19 16 16 13 14 16 17 17 17 16 14 12 11 9 9 10 9 8 13 19 22 23 22 20 19 24 32 36 37 36 37 41 44 47 49
Wind_Direction
329 326 324 325 326 328 329 330 331 332 331 331 330 330 330 330 330 331 332 333 333 332 331 331 329 325 323 320 319 319 318 316 312 307 301 296 288 281 274 269 268 267 265 260 254 248 243 240 238 236 235 234 233 233 233 233 233 234 234 235 236 237 239 239 240 242 242 242 243 245 240 232 235 239 240 240 235 228 219 215 212 209 207 203 202 202 208 212
329 326 323 323 325 327 329 331 332 332 332 332 331 331 331 331 331 333 334 334 333 332 331 331 329 325 322 320 320 320 319 317 313 309 303 298 291 283 276 271 268 267 266 261 256 250 245 242 239 237 235 234 233 233 232 232 233 233 235 236 236 237 239 239 240 242 244 243 242 244 242 235 235 237 239 238 238 238 230 221 216 215 209 202 201 200 204 210
329 327 324 322 323 325 327 330 333 333 333 332 332 331 331 332 333 334 335 334 333 332 331 330 328 324 320 320 320 320 319 318 315 311 306 300 293 286 278 272 269 268 266 263 257 252 248 244 242 238 236 235 234 233 232 232 232 233 234 235 236 237 238 239 239 240 242 242 240 242 243 237 232 235 237 235 236 240 239 231 221 219 214 203 201 199 198 204
328 328 326 323 322 322 325 330 333 334 334 333 332 331 331 332 333 334 334 334 333 332 331 329 327 323 319 318 319 320 319 319 316 312 308 302 295 288 281 274 270 269 267 264 260 255 251 247 244 241 238 236 234 233 232 232 232 232 234 235 236 236 237 238 238 237 238 240 239 240 242 238 232 232 236 234 233 237 239 236 227 224 222 210 202 198 196 199
328 328 328 326 323 322 325 329 333 334 334 333 332 331 332 333 334 335 334 334 333 332 331 329 326 322 319 317 318 319 319 319 317 313 309 303 296 290 283 277 271 270 269 266 261 256 252 249 247 244 240 238 236 234 233 233 232 232 233 234 235 236 236 236 237 236 237 240 240 239 241 240 234 231 234 234 232 234 237 240 237 232 229 217 206 201 199 198
328 328 329 329 326 324 325 329 332 333 334 333 331 331 332 333 335 334 333 333 333 332 330 328 326 323 319 317 317 319 319 319 317 313 309 304 298 292 285 280 274 271 269 268 264 258 254 251 248 245 242 240 238 235 233 233 232 232 233 233 234 235 235 235 237 238 237 239 240 239 240 239 236 232 233 235 232 231 236 242 243 239 231 220 212 210 207 203
328 328 330 331 328 327 327 329 332 333 333 332 331 331 333 334 334 334 333 333 333 332 330 327 325 323 320 318 318 319 320 319 317 313 308 304 300 295 289 283 277 273 270 269 267 262 257 254 251 247 244 241 238 237 236 235 234 232 233 232 232 234 235 236 237 238 237 238 239 238 239 239 237 234 233 235 232 230 233 239 243 240 235 225 220 219 218 213
326 328 330 332 330 329 329 330 332 333 333 332 331 332 332 334 334 333 333 333 333 331 329 326 325 323 320 318 319 319 320 319 317 313 308 304 301 297 292 285 279 274 270 269 268 266 260 256 254 251 248 244 240 238 237 236 235 233 232 232 232 233 235 236 237 237 237 237 237 237 238 238 237 235 233 233 232 230 231 235 241 240 237 235 228 223 222 220
326 328 331 333 332 331 331 331 333 333 333 332 331 331 332 333 333 333 333 333 332 330 328 326 325 323 321 319 320 320 320 319 316 312 307 304 302 300 296 290 283 276 270 268 267 267 264 259 256 254 252 249 245 241 238 236 236 234 233 233 233 234 235 236 236 236 237 236 236 237 237 237 236 234 233 232 231 231 231 232 239 240 237 238 235 227 224 224
328 330 333 334 333 332 332 333 333 334 333 331 331 331 332 332 332 332 332 333 332 330 328 326 325 323 321 321 321 321 320 318 315 310 306 304 303 302 299 294 288 279 270 265 264 265 266 264 259 255 254 252 248 245 241 237 236 235 234 235 235 234 234 235 235 235 235 236 236 236 237 236 235 234 232 231 230 231 230 230 235 238 236 238 239 233 228 227
330 332 333 334 333 333 333 334 334 335 333 331 330 330 331 332 331 331 332 332 332 330 328 326 325 324 322 322 322 321 320 317 313 309 306 305 305 303 300 296 291 283 274 265 261 260 263 265 265 260 255 253 252 249 245 241 239 237 235 235 236 235 235 235 234 234 234 235 235 235 236 236 235 233 231 230 230 229 228 229 232 234 234 237 240 238 233 229
331 333 333 334 333 333 333 334 335 335 333 332 330 331 331 331 331 331 332 333 332 330 328 327 326 325 324 323 323 321 320 316 312 309 307 306 306 304 302 299 294 288 281 274 268 263 260 261 264 264 261 256 253 251 249 246 243 241 237 235 235 235 235 235 235 235 234 234 234 235 235 235 234 233 230 230 231 229 227 228 229 229 232 234 237 240 237 233
331 332 332 333 333 333 333 334 335 334 333 332 331 331 331 331 331 332 333 333 331 330 329 328 327 325 324 324 323 322 319 316 311 309 309 308 306 305 305 303 298 291 286 284 282 278 271 264 262 263 264 262 257 254 252 250 246 244 241 237 235 235 236 236 235 234 234 233 233 234 235 234 233 233 231 230 231 229 227 228 229 227 229 232 234 238 239 236
330 331 331 332 332 333 334 334 334 334 334 333 332 332 331 331 332 333 333 333 332 331 330 329 327 326 326 325 323 322 319 315 312 311 310 309 308 308 308 305 299 293 290 289 290 289 285 276 266 262 261 262 262 258 253 252 249 246 244 241 238 237 237 236 234 234 234 233 233 234 235 233 232 232 232 231 231 229 227 227 228 226 226 229 231 235 239 237
330 331 331 332 332 333 334 334 334 334 334 333 333 332 332 332 333 334 334 333 333 332 330 329 328 327 327 325 324 323 319 315 313 312 310 309 311 312 310 306 300 296 294 295 295 294 289 281 273 267 262 260 262 262 258 253 250 248 246 243 241 239 239 238 235 233 234 234 233 233 234 233 231 231 233 232 230 228 225 224 226 226 224 225 229 231 235 237
331 331 332 332 333 334 334 334 334 334 334 334 333 332 333 333 334 335 334 334 334 333 331 330 329 329 327 326 325 323 318 315 314 311 310 311 312 312 309 305 303 301 301 301 299 293 285 282 281 278 272 265 260 260 261 257 252 249 247 243 242 241 240 241 239 234 232 234 233 232 233 233 231 232 233 232 230 227 223 223 224 225 224 223 225 228 231 235
331 331 332 333 334 334 335 334 334 334 334 333 333 333 333 334 335 335 334 334 335 334 333 331 330 330 328 326 325 323 318 317 316 312 311 311 311 310 309 308 308 307 307 305 301 294 287 286 287 288 287 279 267 259 257 257 255 251 247 242 240 242 240 240 242 238 233 233 234 232 232 232 232 233 233 232 231 226 222 222 223 224 223 221 222 225 228 232
331 331 332 333 334 334 334 334 334 334 334 334 333 333 334 335 336 335 335 336 337 335 334 332 332 330 328 327 325 323 319 320 318 311 311 312 312 312 313 314 313 311 308 302 298 294 291 289 289 291 291 288 280 269 258 254 252 248 246 242 239 240 239 237 241 242 235 231 233 233 231 231 231 233 232 231 232 227 221 222 223 223 223 221 220 222 225 229
332 332 332 333 334 334 334 334 334 334 334 334 334 334 336 336 336 335 336 338 338 336 334 333 333 330 328 328 326 322 318 322 320 308 310 314 314 317 319 318 316 312 307 300 296 293 291 291 290 290 290 287 284 283 276 259 249 246 246 243 240 240 239 236 237 241 238 232 232 232 232 231 230 231 232 232 231 226 221 221 222 222 222 220 220 220 221 225
334 334 334 334 334 334 335 335 334 335 334 334 335 336 337 337 337 337 338 340 339 337 335 334 333 330 330 329 325 321 317 320 320 306 310 313 314 316 316 314 310 308 304 300 299 298 295 292 289 286 286 287 285 287 291 278 254 244 243 240 239 238 238 237 236 238 239 235 233 232 232 232 230 229 230 231 230 225 221 221 222 222 221 220 219 219 219 222
336 337 336 335 335 335 335 335 335 335 335 335 336 337 338 338 338 338 339 341 339 337 335 334 334 331 331 330 325 319 316 317 316 309 308 309 310 310 308 306 303 301 301 299 300 301 298 293 288 285 285 287 288 286 291 290 269 250 242 238 236 237 237 237 237 236 238 237 234 232 232 232 231 229 229 231 231 226 222 222 222 221 221 220 219 218 217 219
339 338 337 335 335 334 334 335 335 335 335 336 337 338 339 339 339 339 340 341 339 336 334 334 334 333 332 331 324 317 314 312 311 310 306 304 307 306 303 303 302 301 301 299 299 301 298 290 284 284 286 288 288 287 287 288 282 264 251 241 234 234 236 236 237 236 236 236 233 232 233 232 231 230 229 229 229 226 222 221 221 220 220 220 218 218 216 217
340 339 337 336 334 333 334 335 335 335 336 337 338 339 340 339 339 340 340 340 338 336 334 334 335 334 333 331 324 316 313 310 308 311 308 302 303 302 301 303 306 305 304 302 299 297 295 287 282 282 285 289 289 288 286 285 285 277 263 252 240 234 235 235 237 237 234 235 233 232 233 232 230 229 229 229 228 227 223 221 221 219 219 219 218 218 217 216
340 339 338 336 334 334 334 335 335 336 336 338 339 340 340 340 340 341 340 339 338 335 334 335 336 336 334 332 325 316 314 310 306 309 309 304 302 300 298 303 308 307 305 306 302 296 290 285 283 284 286 290 292 290 288 285 283 279 271 260 248 241 237 233 235 237 234 234 234 233 234 233 231 230 230 229 228 227 225 222 220 219 218 218 218 218 217 215
341 340 339 337 335 334 335 335 336 336 337 339 340 341 340 341 341 340 339 339 337 334 334 336 337 337 336 333 325 317 315 310 304 307 307 303 302 301 298 299 305 307 305 308 308 298 286 281 281 285 289 292 295 296 293 287 283 280 274 264 253 248 243 237 236 238 236 235 236 236 235 234 231 230 231 230 228 227 225 222 221 219 218 217 218 217 217 216
341 341 340 338 336 335 335 335 336 337 338 340 341 341 341 341 341 340 339 339 337 335 336 338 338 338 337 333 326 319 315 310 306 305 304 301 302 303 302 300 303 305 305 310 311 302 286 280 281 282 286 291 295 298 297 287 281 279 273 268 262 255 249 244 240 239 237 236 237 237 236 234 231 230 231 229 228 226 225 223 221 219 217 216 217 216 217 216
340 340 339 338 336 335 335 336 337 338 339 341 341 342 342 342 341 341 340 339 338 336 337 339 339 339 338 334 327 320 315 310 305 303 304 304 303 304 305 306 307 306 306 309 312 307 289 277 280 281 280 284 290 291 288 280 275 275 274 270 267 262 254 248 245 242 239 237 238 237 235 235 231 228 229 229 228 226 224 223 220 219 217 216 216 215 215 216
339 339 339 338 337 336 336 337 338 339 340 341 342 343 343 342 342 342 341 340 338 337 338 340 340 339 338 334 328 322 317 312 308 306 308 309 305 305 307 308 308 307 306 309 311 307 292 277 279 281 280 282 286 284 279 276 272 274 278 275 267 264 259 253 248 245 243 240 240 238 235 236 233 228 228 229 228 226 224 222 220 219 217 216 215 215 214 215
337 337 337 337 337 336 337 338 338 340 341 342 342 343 343 343 343 342 341 340 339 338 338 340 340 340 338 335 330 326 323 319 316 311 311 312 309 307 310 309 307 307 308 309 309 305 296 287 284 283 283 282 281 280 279 277 274 272 276 277 271 266 262 258 253 249 248 246 240 236 236 236 234 230 229 229 227 226 224 221 220 219 217 217 215 214 214 214
335 336 336 336 336 337 338 339 339 340 342 342 343 344 343 345 344 342 342 341 340 339 339 340 341 341 339 336 331 327 328 327 320 311 309 311 312 312 315 312 309 311 313 309 305 304 301 293 288 287 287 285 284 283 281 279 276 273 273 274 272 270 264 260 256 251 251 249 241 235 235 237 236 232 230 230 226 225 224 221 220 218 217 217 215 213 213 213
333 334 335 336 337 338 339 339 339 341 342 342 343 344 344 346 346 343 342 341 339 338 340 341 341 340 338 337 335 328 328 328 319 309 308 312 317 320 320 317 315 318 319 312 304 304 305 299 294 293 292 291 290 287 282 280 277 274 273 273 271 271 269 264 258 252 251 249 243 237 235 238 238 232 229 229 226 222 222 219 217 217 217 217 215 213 212 213
332 333 335 336 337 339 339 339 340 341 342 342 343 344 345 347 346 344 342 341 339 339 341 342 340 339 337 337 339 334 330 328 320 312 312 317 321 324 323 320 320 322 322 318 308 299 300 301 300 299 296 295 295 292 285 280 276 274 272 270 267 266 267 265 258 254 254 252 246 242 240 241 240 233 227 227 225 220 220 219 216 215 216 216 214 213 213 212
333 334 336 338 339 340 340 340 340 341 342 342 343 344 346 348 347 344 342 340 339 339 342 342 340 339 338 337 341 342 336 331 325 317 316 319 319 320 320 317 321 325 323 321 314 298 293 298 300 300 299 298 297 295 288 277 271 271 270 266 262 259 260 261 258 256 256 255 251 247 246 245 241 234 227 226 225 220 219 220 217 215 216 216 214 213 213 212
335 337 339 339 339 340 341 340 341 342 342 343 344 344 346 349 347 344 342 340 340 340 341 343 342 340 339 338 342 345 338 335 334 323 318 319 317 318 318 316 324 328 325 326 320 303 295 300 300 301 302 301 296 292 287 277 268 268 269 266 260 257 259 261 262 260 257 254 250 247 247 246 241 234 229 227 226 222 219 219 218 215 215 215 214 214 213 212
337 339 339 339 340 341 341 340 341 342 343 343 344 344 346 349 348 345 343 340 339 340 341 343 343 341 339 337 339 343 335 333 339 329 320 319 317 319 321 320 326 328 328 332 326 308 300 300 301 305 306 301 295 291 287 280 272 269 266 263 260 256 257 260 262 261 258 255 246 240 245 248 243 234 227 228 227 221 219 219 217 216 215 215 215 214 214 212
338 338 338 338 340 341 340 340 341 343 343 343 344 344 347 349 348 346 343 339 339 341 343 346 345 342 340 338 338 341 333 329 334 331 325 321 318 322 324 321 325 327 329 335 332 317 303 300 308 311 304 297 294 291 288 283 275 268 263 262 263 256 253 257 262 260 257 255 249 243 244 248 246 235 225 225 226 221 219 220 217 216 215 214 214 214 214 213
339 338 338 338 339 340 340 340 342 343 343 343 344 345 347 348 348 346 343 340 338 341 345 348 347 343 341 340 341 343 336 332 333 334 335 330 323 324 324 321 325 327 329 333 334 325 308 302 314 313 301 298 298 293 290 287 276 268 265 264 260 254 250 253 257 257 254 253 249 245 244 245 250 239 226 225 226 220 219 220 217 215 215 214 214 213 214 214
338 337 338 338 339 340 340 341 342 343 343 343 344 346 347 347 348 347 344 340 338 341 346 349 348 346 342 340 345 348 341 336 334 336 337 334 329 328 326 326 328 329 329 329 329 326 314 306 310 313 309 308 303 295 292 289 278 268 263 259 256 255 253 250 252 254 253 254 250 244 243 242 246 241 228 226 226 219 217 220 217 214 214 214 213 213 214 214
336 337 339 340 340 341 341 342 343 342 342 343 345 346 346 347 348 347 344 340 338 341 347 349 347 347 345 341 346 356 347 337 337 337 335 333 334 335 333 332 333 332 329 325 323 321 315 307 302 310 321 325 314 303 295 286 280 274 267 262 262 262 256 250 253 253 251 256 253 244 241 240 240 239 227 224 226 220 216 218 217 214 213 213 213 212 213 214
337 339 341 341 341 341 342 343 343 343 343 344 346 347 346 346 347 347 344 340 339 341 347 350 347 348 348 341 343 360 354 338 337 339 336 334 336 340 342 339 337 335 330 325 322 318 312 307 303 300 309 324 327 315 300 282 275 277 275 271 270 270 262 253 254 253 249 252 250 243 243 239 236 235 224 217 222 219 214 216 216 213 211 212 213 212 212 214
340 341 341 342 342 342 343 344 344 343 343 345 347 348 346 346 346 346 345 341 338 340 347 351 348 348 350 342 338 354 359 340 334 337 338 336 335 341 346 342 340 339 334 328 325 316 307 310 316 308 300 314 328 325 316 300 283 277 276 273 270 269 262 251 249 252 251 251 248 244 245 239 229 224 218 214 217 215 213 214 215 213 211 211 212 212 212 213
340 341 342 342 343 343 344 344 344 344 343 345 348 349 347 346 346 346 345 341 338 339 346 351 349 349 351 344 336 343 357 346 332 333 338 338 337 342 345 343 343 344 339 335 330 319 313 321 333 329 307 311 325 329 326 318 299 285 277 272 269 265 258 252 248 249 252 252 247 244 241 233 217 206 205 212 214 212 211 211 213 213 211 210 211 213 212 212
340 341 342 342 343 344 344 344 344 343 343 345 349 351 349 346 346 347 346 343 338 338 345 350 350 351 351 345 335 335 346 343 330 334 341 343 343 343 343 344 344 341 339 340 336 330 335 340 341 339 326 321 326 326 328 328 317 304 290 277 272 268 261 255 247 244 250 250 242 239 236 222 205 200 201 205 206 206 205 207 211 212 210 210 212 213 212 212
340 341 341 342 344 344 343 343 344 343 343 345 349 351 351 347 346 349 347 344 339 336 343 349 350 353 353 346 336 331 334 338 339 345 347 347 347 343 341 344 340 335 339 344 344 344 347 344 341 344 344 338 334 330 332 334 328 320 309 288 279 273 258 248 241 240 247 249 239 232 224 207 203 205 200 196 197 201 203 203 206 206 205 208 210 211 211 211
339 339 341 343 344 344 342 343 343 342 343 345 348 351 352 348 347 350 350 346 340 336 341 349 350 353 354 349 340 332 334 339 344 350 349 347 347 343 339 340 339 340 347 352 353 352 345 341 343 348 351 350 346 337 333 333 332 329 318 293 283 278 256 235 232 236 241 243 235 225 215 209 214 209 193 186 189 196 200 201 203 203 203 205 206 208 210 210
338 339 340 343 344 343 341 343 344 342 343 345 347 351 353 348 345 349 351 348 341 336 340 346 350 352 354 353 348 340 340 339 339 348 349 345 349 345 336 339 346 352 356 356 355 351 342 341 346 348 350 354 355 348 340 336 337 336 322 292 277 273 255 230 225 232 238 239 233 224 219 218 215 203 187 185 188 190 192 193 194 199 206 206 203 204 208 209
337 338 340 342 343 341 341 343 344 342 343 345 347 350 354 352 346 346 350 349 343 337 338 343 349 351 351 355 355 349 345 339 337 346 346 342 351 347 336 345 2 5 3 4 359 352 346 345 348 351 353 354 358 1 357 348 343 339 327 306 284 270 253 235 228 228 233 236 228 220 219 218 214 206 195 190 191 191 190 188 185 191 202 205 203 204 207 209
336 338 340 341 341 339 340 344 344 341 343 346 346 349 353 354 351 347 348 349 343 338 338 341 346 349 348 351 354 354 357 349 337 341 344 346 353 353 348 360 12 9 9 12 5 357 353 350 352 357 357 355 1 12 16 15 4 355 355 357 333 276 243 234 232 226 225 227 220 213 215 214 213 214 204 194 192 192 193 192 192 196 200 201 201 204 207 208
336 339 340 340 339 337 340 345 343 340 344 346 346 347 350 354 353 349 348 350 344 339 340 340 342 346 345 347 350 351 360 9 349 344 356 358 355 355 3 12 13 9 12 11 4 3 4 359 1 5 1 356 356 10 23 30 28 29 41 45 36 9 227 203 210 219 223 220 210 207 210 208 207 211 204 192 189 191 195 199 201 200 199 199 200 202 206 208
336 339 340 338 337 336 340 346 343 340 344 346 344 346 349 354 355 349 348 351 346 339 341 341 340 342 342 344 348 347 352 3 0 357 6 7 359 359 6 11 10 9 13 9 4 8 13 8 7 9 5 358 352 357 18 30 38 49 59 65 63 60 72 117 159 189 199 196 195 201 204 197 198 208 203 192 188 191 194 200 203 202 201 200 199 201 204 207
336 338 338 336 334 335 340 345 343 341 344 346 344 345 348 353 357 351 346 350 349 340 340 342 340 338 338 341 344 343 347 355 358 0 5 6 4 2 1 3 8 11 12 11 9 12 16 13 10 9 5 0 357 352 0 19 38 53 62 71 76 80 83 83 95 128 152 170 188 202 205 184 186 198 200 197 198 195 191 195 201 204 205 203 199 200 203 205
335 337 336 335 333 334 340 345 344 342 344 344 343 345 347 352 356 352 347 349 349 341 338 342 341 337 337 339 340 339 340 347 355 2 4 0 4 5 0 0 9 9 8 11 12 13 17 14 8 7 2 359 4 5 357 360 22 48 58 67 80 91 95 90 90 100 120 151 171 177 180 180 183 188 192 198 204 200 194 198 201 203 205 204 201 201 203 205